Back to catalog

ONEWEB-0693

AliveCommunicationsPO
NORAD 61601·PAYLOAD·🇬🇧 United Kingdom

Launched Oct 20, 2024 from Vandenberg Space Force Base

Loading…

Next Passes (next 24 hours)

TLE

FreshSource: CelesTrak SupGP

Epoch: Sep 14, 2026, 17:56 UTC

1 61601C 24188H   26257.74772407  .00001419  00000+0  36578-2 0  2579
2 61601  87.9189 348.1023 0002538  90.8379  21.2732 13.17648761    15

Track ONEWEB-0693 in real time with AllMySat

Download on the App Store